Location: Geroldsau
(48.7259°N, 8.2466°E)
Time: 15:22:09
(UTC+00:00)

SJ 16-02 - Pass Details

Date: 20 June 2021
Orbit: 606 x 616 km, 75.0° (Epoch: 05 August)

Event Time Altitude Azimuth Distance (km) Brightness Sun altitude
Rises 00:33:20 0° 324° (NW) 2,874 5.4 -16.4°
Reaches altitude 10° 00:36:10 10° 306° (NW) 1,964 4.2 -16.3°
Maximum altitude 00:39:04 18° 264° (W) 1,517 3.1 -16.1°
Enters shadow 00:40:02 17° 247° (WSW) 1,569 3.1 -16.1°
